FW6037 Weather Reports


time (UTC)temp
C
wind
direction
speed
KPH
gust
KPH
rain 1hr
cm
rain 24hr
cm
rain mn
cm
humidity
%
barometer
mb
20260505091552 2 266 1.6 6.4 0.00 1.02 0.00 93 1008.5
20260505090042 2 267 0.0 4.8 0.00 1.02 0.00 92 1008.3
20260505084548 3 267 0.0 6.4 0.00 1.04 0.00 93 1008.1
20260505083053 3 210 1.6 4.8 0.00 1.04 0.00 91 1007.8
20260505081537 3 224 1.6 9.7 0.00 1.04 0.00 93 1007.7
20260505080035 3 248 1.6 6.4 0.00 1.04 0.00 92 1007.4
20260505074535 3 247 1.6 6.4 0.00 1.09 0.00 91 1007.3
20260505073028 3 247 0.0 4.8 0.00 1.09 0.00 89 1007.0
20260505071526 4 245 0.0 6.4 0.00 1.09 0.00 88 1006.7
20260505070023 5 250 3.2 9.7 0.00 1.09 0.00 89 1006.5
20260505064531 5 208 0.0 6.4 0.00 1.17 0.00 88 1006.3
20260505063017 5 177 1.6 8.0 0.00 1.17 0.00 89 1006.0
20260505061513 5 270 0.0 4.8 0.00 1.17 0.00 85 1005.7
20260505060011 6 268 1.6 12.9 0.00 1.17 0.00 83 1005.5
20260505054516 7 252 1.6 11.3 0.00 1.17 0.00 81 1005.2
20260505053003 7 268 1.6 17.7 0.00 1.17 0.00 80 1005.0
20260505051501 7 235 1.6 16.1 0.00 1.17 0.00 80 1004.8
20260505050109 7 268 4.8 17.7 0.00 1.17 0.00 80 1004.6
20260505041604 8 306 3.2 17.7 0.00 1.17 0.00 81 1004.2
20260505034608 7 245 3.2 14.5 0.00 1.17 0.00 81 1003.9
20260505033050 7 253 4.8 19.3 0.00 1.17 0.00 80 1003.6
20260505031546 7 222 3.2 12.9 0.00 1.17 0.00 80 1003.4
20260505030048 8 258 3.2 19.3 0.00 1.17 0.00 79 1003.2
20260505024542 8 247 4.8 19.3 0.00 1.22 1.17 78 1002.9
20260505023044 7 236 4.8 12.9 0.00 1.22 1.17 79 1002.8
20260505021540 6 286 4.8 17.7 0.00 1.22 1.17 81 1002.6
20260505020052 5 253 4.8 12.9 0.00 1.22 1.17 87 1002.5
20260505014541 3 224 0.0 9.7 0.00 1.42 1.17 91 1002.5
20260505013040 2 250 1.6 9.7 0.00 1.42 1.17 90 1002.4
20260505011536 2 233 1.6 6.4 0.00 1.42 1.17 89 1002.4
20260505010033 2 233 1.6 6.4 0.00 1.42 1.17 88 1002.0
20260505004555 3 237 3.2 6.4 0.00 2.16 1.17 87 1001.8
20260505003032 3 237 0.0 4.8 0.00 2.16 1.17 85 1002.0
20260505001535 3 245 0.0 8.0 0.00 2.16 1.17 84 1001.5
20260505000033 4 174 1.6 4.8 0.00 2.16 1.17 83 1001.5
20260504234528 5 170 0.0 3.2 0.00 2.51 1.17 79 1001.2
20260504233026 6 172 0.0 6.4 0.00 2.51 1.17 75 1001.0
20260504231524 7 213 1.6 6.4 0.00 2.51 1.17 73 1000.7
20260504230023 8 216 0.0 6.4 0.00 2.51 1.17 71 1000.5
20260504224529 9 208 1.6 17.7 0.00 3.15 1.17 64 1000.3
20260504223021 10 301 9.7 20.9 0.00 3.15 1.17 62 1000.2
20260504221517 10 222 12.9 30.6 0.00 3.15 1.17 60 999.9
20260504220116 10 311 16.1 33.8 0.00 3.15 1.17 60 999.5
20260504214514 10 256 14.5 32.2 0.00 3.25 1.17 61 999.1
20260504213029 11 294 9.7 30.6 0.00 3.25 1.17 60 998.6
20260504211513 11 241 12.9 37.0 0.00 3.25 1.17 61 998.6
20260504210110 11 251 22.5 51.5 0.00 3.25 1.17 61 998.5
20260504204611 11 276 17.7 45.1 0.00 3.53 1.17 61 998.5
20260504203005 11 248 19.3 38.6 0.00 3.53 1.17 62 998.0
20260504201501 11 296 16.1 45.1 0.00 3.53 1.17 64 997.7
20260504194603 11 279 20.9 40.2 0.00 3.56 1.17 67 997.1
20260504193053 10 211 19.3 49.9 0.00 3.56 1.17 69 997.0
20260504191610 10 227 12.9 40.2 0.00 3.56 1.17 72 996.5
20260504190048 10 287 19.3 57.9 0.00 3.56 1.17 71 996.0
20260504184555 10 262 17.7 43.5 0.00 3.56 1.17 74 995.7
20260504183141 9 317 20.9 46.7 0.00 3.56 1.17 76 995.4
20260504181538 8 195 24.1 40.2 0.00 3.56 1.17 80 995.2
20260504180037 8 241 20.9 40.2 0.00 3.56 1.17 83 995.2
20260504174532 7 270 27.4 54.7 0.00 3.56 1.17 84 994.8
20260504173028 7 245 14.5 48.3 0.00 3.56 1.17 88 994.4
20260504171524 6 301 12.9 43.5 0.05 3.56 1.17 91 994.2
20260504140103 3 273 14.5 59.5 0.13 2.84 0.46 94 987.6